Location: Unspecified
(41.5000°N, 0.0000°E)
Time: 19:06:48
(UTC+00:00)

Vanguard 1 - Visible Passes

Search period start: 18 June 2019 00:00
Search period end: 28 June 2019 00:00
Orbit: 654 x 3829 km, 34.2° (Epoch: 17 June)

Date Brightness Start Highest point End Pass type
(mag) Time Alt. Az. Time Alt. Az. Time Alt. Az.
18 Jun 12.6 02:10:47 20° SSW 02:19:23 30° SSE 02:28:39 10° E visible
19 Jun 13.3 00:17:14 16° SE 00:17:23 16° SE 00:25:44 10° ESE visible
19 Jun 12.4 02:29:53 19° SSW 02:40:36 37° SSE 02:50:04 10° E visible
20 Jun 13.1 00:36:14 22° SSE 00:38:37 23° SSE 00:48:49 10° ESE visible
20 Jun 12.2 02:48:52 17° SW 03:01:48 44° SSE 03:11:15 10° E visible
21 Jun 12.9 00:55:08 26° S 00:59:49 29° SSE 01:10:57 10° E visible
21 Jun 12.0 03:07:45 13° SW 03:22:59 50° SSE 03:32:19 10° E visible
21 Jun 13.6 23:01:17 13° SE 23:01:17 13° SE 23:05:14 10° ESE visible
22 Jun 12.7 01:13:54 28° S 01:21:02 36° SSE 01:32:36 10° E visible
22 Jun 11.9 03:27:24 10° WSW 03:44:10 55° S 03:53:18 10° E visible
22 Jun 13.3 23:19:55 20° SE 23:19:55 20° SE 23:29:36 10° ESE visible
23 Jun 12.5 01:32:31 27° SSW 01:42:15 43° SSE 01:53:59 10° E visible
23 Jun 11.8 03:48:43 10° WSW 04:05:19 59° S 04:14:14 10° E visible
23 Jun 13.1 23:38:21 26° SSE 23:39:37 26° SE 23:52:20 10° E visible
24 Jun 12.4 01:50:56 24° SW 02:03:29 49° SSE 02:15:11 10° E visible
24 Jun 13.0 23:56:33 31° SSE 00:00:46 33° SSE 00:14:22 10° E visible
25 Jun 12.2 02:09:06 18° SW 02:24:44 55° SSE 02:36:16 10° E visible
25 Jun 13.6 22:01:52 15° SE 22:01:52 15° SE 22:08:33 10° ESE visible
26 Jun 12.8 00:14:23 32° S 00:21:57 40° SSE 00:36:00 10° E visible
26 Jun 12.1 02:26:53 11° WSW 02:45:59 60° S 02:57:16 10° E visible
26 Jun 13.3 22:19:09 23° SE 22:19:09 23° SE 22:32:26 10° E visible
27 Jun 12.6 00:31:35 28° SSW 00:43:10 47° SSE 00:57:23 10° E visible
27 Jun 12.1 02:47:33 10° WSW 03:07:14 63° S 03:18:15 10° E visible
27 Jun 13.2 22:22:07 10° SSW 22:40:03 29° SE 22:55:04 10° E visible
